| time (UTC) | temp F | wind direction | speed MPH | gust MPH | rain 1hr in | rain 24hr in | rain mn in | humidity % | barometer mb |
| 20260904145328 | 86 | 122 | 2.0 | 5.0 | 0.00 | 0.00 | 0.00 | 84 | 1017.5 |
| 20260904144824 | 85 | 127 | 1.0 | 4.0 | 0.00 | 0.00 | 0.00 | 85 | 1017.3 |
| 20260904144539 | 85 | 134 | 1.0 | 4.0 | 0.00 | 0.00 | 0.00 | 85 | 1017.2 |
| 20260904144322 | 85 | 126 | 0.0 | 0.0 | 0.00 | 0.00 | 0.00 | 85 | 1017.3 |
| 20260904143819 | 85 | 131 | 0.0 | 0.0 | 0.00 | 0.00 | 0.00 | 85 | 1017.3 |
| 20260904143317 | 85 | 115 | 0.0 | 3.0 | 0.00 | 0.00 | 0.00 | 85 | 1017.2 |
| 20260904143023 | 84 | 149 | 0.0 | 3.0 | 0.00 | 0.00 | 0.00 | 85 | 1017.2 |
| 20260904142815 | 85 | 83 | 1.0 | 3.0 | 0.00 | 0.00 | 0.00 | 84 | 1017.3 |
| 20260904142331 | 85 | 109 | 1.0 | 6.0 | 0.00 | 0.00 | 0.00 | 84 | 1017.3 |
| 20260904141827 | 85 | 146 | 4.0 | 6.0 | 0.00 | 0.00 | 0.00 | 84 | 1017.2 |
| 20260904141522 | 85 | 132 | 2.0 | 6.0 | 0.00 | 0.00 | 0.00 | 84 | 1017.0 |
| 20260904141325 | 85 | 127 | 3.0 | 6.0 | 0.00 | 0.00 | 0.00 | 84 | 1017.1 |
| 20260904140822 | 86 | 127 | 4.0 | 8.0 | 0.00 | 0.00 | 0.00 | 83 | 1017.1 |
| 20260904140316 | 87 | 134 | 3.0 | 8.0 | 0.00 | 0.00 | 0.00 | 82 | 1017.0 |
| 20260904140005 | 87 | 159 | 4.0 | 8.0 | 0.00 | 0.00 | 0.00 | 82 | 1016.8 |
| 20260904135814 | 88 | 123 | 4.0 | 6.0 | 0.00 | 0.00 | 0.00 | 82 | 1017.0 |
| 20260904135333 | 89 | 202 | 1.0 | 5.0 | 0.00 | 0.00 | 0.00 | 82 | 1017.0 |
| 20260904134831 | 89 | 109 | 2.0 | 5.0 | 0.00 | 0.00 | 0.00 | 81 | 1017.0 |
| 20260904134554 | 89 | 114 | 1.0 | 7.0 | 0.00 | 0.00 | 0.00 | 81 | 1016.9 |
| 20260904134329 | 90 | 150 | 2.0 | 7.0 | 0.00 | 0.00 | 0.00 | 81 | 1016.9 |
| 20260904133827 | 91 | 118 | 4.0 | 7.0 | 0.00 | 0.00 | 0.00 | 81 | 1016.8 |
| 20260904133323 | 91 | 170 | 0.0 | 3.0 | 0.00 | 0.00 | 0.00 | 81 | 1016.9 |
| 20260904133030 | 91 | 284 | 0.0 | 3.0 | 0.00 | 0.00 | 0.00 | 81 | 1016.7 |
| 20260904132821 | 92 | 123 | 0.0 | 2.0 | 0.00 | 0.00 | 0.00 | 81 | 1016.9 |
| 20260904132340 | 92 | 125 | 0.0 | 2.0 | 0.00 | 0.00 | 0.00 | 81 | 1016.7 |
| 20260904131837 | 91 | 141 | 0.0 | 2.0 | 0.00 | 0.00 | 0.00 | 81 | 1016.7 |
| 20260904131553 | 91 | 141 | 1.0 | 2.0 | 0.00 | 0.00 | 0.00 | 81 | 1016.7 |
| 20260904131353 | 91 | 157 | 1.0 | 2.0 | 0.00 | 0.00 | 0.00 | 81 | 1016.8 |
| 20260904130849 | 91 | 129 | 1.0 | 2.0 | 0.00 | 0.00 | 0.00 | 81 | 1016.7 |
| 20260904130324 | 91 | 124 | 0.0 | 2.0 | 0.00 | 0.00 | 0.00 | 82 | 1016.7 |
| 20260904130053 | 90 | 168 | 0.0 | 2.0 | 0.00 | 0.00 | 0.00 | 82 | 1016.5 |
| 20260904125821 | 90 | 140 | 1.0 | 2.0 | 0.00 | 0.00 | 0.00 | 82 | 1016.6 |
| 20260904125338 | 89 | 134 | 1.0 | 4.0 | 0.00 | 0.00 | 0.00 | 83 | 1016.5 |
| 20260904124855 | 88 | 127 | 1.0 | 6.0 | 0.00 | 0.00 | 0.00 | 83 | 1016.6 |
| 20260904124511 | 88 | 169 | 2.0 | 6.0 | 0.00 | 0.00 | 0.00 | 83 | 1016.4 |
| 20260904124329 | 88 | 107 | 1.0 | 6.0 | 0.00 | 0.00 | 0.00 | 83 | 1016.5 |
| 20260904123826 | 89 | 131 | 0.0 | 0.0 | 0.00 | 0.00 | 0.00 | 83 | 1016.5 |
| 20260904123324 | 88 | 146 | 0.0 | 0.0 | 0.00 | 0.00 | 0.00 | 84 | 1016.5 |
| 20260904123037 | 87 | 146 | 0.0 | 0.0 | 0.00 | 0.00 | 0.00 | 85 | 1016.4 |
| 20260904122820 | 87 | 127 | 0.0 | 0.0 | 0.00 | 0.00 | 0.00 | 86 | 1016.4 |
| 20260904122317 | 87 | 127 | 0.0 | 0.0 | 0.00 | 0.00 | 0.00 | 89 | 1016.4 |
| 20260904121834 | 85 | 127 | 0.0 | 0.0 | 0.00 | 0.00 | 0.00 | 91 | 1016.4 |
| 20260904121517 | 84 | 127 | 0.0 | 0.0 | 0.00 | 0.00 | 0.00 | 92 | 1016.3 |
| 20260904121329 | 84 | 127 | 0.0 | 0.0 | 0.00 | 0.00 | 0.00 | 93 | 1016.3 |
| 20260904120820 | 84 | 127 | 0.0 | 0.0 | 0.00 | 0.00 | 0.00 | 93 | 1016.3 |
| 20260904120318 | 83 | 127 | 0.0 | 0.0 | 0.00 | 0.00 | 0.00 | 94 | 1016.4 |
| 20260904120016 | 82 | 127 | 0.0 | 0.0 | 0.00 | 0.00 | 0.00 | 94 | 1016.2 |
| 20260904115833 | 82 | 127 | 0.0 | 0.0 | 0.00 | 0.00 | 0.00 | 94 | 1016.3 |
| 20260904115329 | 81 | 127 | 0.0 | 0.0 | 0.00 | 0.00 | 0.00 | 93 | 1016.3 |
| 20260904114825 | 80 | 127 | 0.0 | 0.0 | 0.00 | 0.00 | 0.00 | 93 | 1016.1 |
| 20260904114539 | 79 | 127 | 0.0 | 0.0 | 0.00 | 0.00 | 0.00 | 93 | 1016.0 |
| 20260904114322 | 80 | 127 | 0.0 | 0.0 | 0.00 | 0.00 | 0.00 | 93 | 1016.2 |
| 20260904113820 | 80 | 127 | 0.0 | 0.0 | 0.00 | 0.00 | 0.00 | 93 | 1016.1 |
| 20260904113317 | 79 | 127 | 0.0 | 0.0 | 0.00 | 0.00 | 0.00 | 93 | 1016.2 |
| 20260904113020 | 79 | 127 | 0.0 | 0.0 | 0.00 | 0.00 | 0.00 | 93 | 1016.0 |
| 20260904112815 | 79 | 127 | 0.0 | 0.0 | 0.00 | 0.00 | 0.00 | 93 | 1016.1 |
| 20260904112333 | 79 | 127 | 0.0 | 0.0 | 0.00 | 0.00 | 0.00 | 93 | 1016.0 |
| 20260904111852 | 79 | 127 | 0.0 | 0.0 | 0.00 | 0.00 | 0.00 | 93 | 1016.1 |
| 20260904111550 | 79 | 127 | 0.0 | 0.0 | 0.00 | 0.00 | 0.00 | 93 | 1016.0 |
| 20260904111327 | 80 | 127 | 0.0 | 0.0 | 0.00 | 0.00 | 0.00 | 93 | 1016.0 |
| 20260904110825 | 80 | 127 | 0.0 | 0.0 | 0.00 | 0.00 | 0.00 | 93 | 1016.0 |
| 20260904110323 | 80 | 127 | 0.0 | 0.0 | 0.00 | 0.00 | 0.00 | 93 | 1015.9 |
| 20260904110010 | 79 | 127 | 0.0 | 0.0 | 0.00 | 0.00 | 0.00 | 93 | 1015.8 |
| 20260904105819 | 80 | 127 | 0.0 | 0.0 | 0.00 | 0.00 | 0.00 | 93 | 1015.8 |
| 20260904105315 | 80 | 127 | 0.0 | 0.0 | 0.00 | 0.00 | 0.00 | 93 | 1015.7 |
| 20260904104831 | 80 | 127 | 0.0 | 0.0 | 0.00 | 0.00 | 0.00 | 93 | 1015.7 |
| 20260904104553 | 79 | 127 | 0.0 | 0.0 | 0.00 | 0.00 | 0.00 | 93 | 1015.6 |
| 20260904104346 | 80 | 127 | 0.0 | 0.0 | 0.00 | 0.00 | 0.00 | 93 | 1015.6 |
| 20260904103824 | 80 | 127 | 0.0 | 0.0 | 0.00 | 0.00 | 0.00 | 93 | 1015.7 |
| 20260904103320 | 80 | 127 | 0.0 | 0.0 | 0.00 | 0.00 | 0.00 | 93 | 1015.6 |
| 20260904103022 | 79 | 127 | 0.0 | 0.0 | 0.00 | 0.00 | 0.00 | 93 | 1015.4 |
| 20260904102838 | 80 | 127 | 0.0 | 0.0 | 0.00 | 0.00 | 0.00 | 93 | 1015.6 |
| 20260904102315 | 80 | 127 | 0.0 | 0.0 | 0.00 | 0.00 | 0.00 | 93 | 1015.5 |
| 20260904101833 | 80 | 127 | 0.0 | 0.0 | 0.00 | 0.00 | 0.00 | 92 | 1015.4 |
| 20260904101549 | 79 | 127 | 0.0 | 0.0 | 0.00 | 0.00 | 0.00 | 92 | 1015.3 |
| 20260904101330 | 80 | 127 | 0.0 | 0.0 | 0.00 | 0.00 | 0.00 | 92 | 1015.5 |
| 20260904100828 | 80 | 127 | 0.0 | 0.0 | 0.00 | 0.00 | 0.00 | 92 | 1015.4 |
| 20260904100325 | 80 | 127 | 0.0 | 0.0 | 0.00 | 0.00 | 0.00 | 92 | 1015.3 |
| 20260904100034 | 80 | 127 | 0.0 | 0.0 | 0.00 | 0.00 | 0.00 | 92 | 1015.2 |
| 20260904095842 | 80 | 127 | 0.0 | 0.0 | 0.00 | 0.00 | 0.00 | 92 | 1015.3 |
| 20260904095318 | 81 | 127 | 0.0 | 0.0 | 0.00 | 0.00 | 0.00 | 92 | 1015.2 |
| 20260904094816 | 81 | 127 | 0.0 | 0.0 | 0.00 | 0.00 | 0.00 | 92 | 1015.1 |
| 20260904094601 | 80 | 127 | 0.0 | 0.0 | 0.00 | 0.00 | 0.00 | 92 | 1014.9 |
| 20260904094503 | 80 | 127 | 0.0 | 0.0 | 0.00 | 0.00 | 0.00 | 92 | 1014.9 |
| 20260904094316 | 80 | 127 | 0.0 | 0.0 | 0.00 | 0.00 | 0.00 | 92 | 1015.0 |
| 20260904093834 | 80 | 127 | 0.0 | 0.0 | 0.00 | 0.00 | 0.00 | 92 | 1015.1 |
| 20260904093352 | 80 | 127 | 0.0 | 0.0 | 0.00 | 0.00 | 0.00 | 92 | 1015.0 |
| 20260904093027 | 80 | 127 | 0.0 | 0.0 | 0.00 | 0.00 | 0.00 | 92 | 1014.9 |
| 20260904092845 | 81 | 127 | 0.0 | 0.0 | 0.00 | 0.00 | 0.00 | 92 | 1014.9 |
| 20260904092340 | 81 | 127 | 0.0 | 0.0 | 0.00 | 0.00 | 0.00 | 92 | 1015.0 |
| 20260904091836 | 81 | 127 | 0.0 | 0.0 | 0.00 | 0.00 | 0.00 | 92 | 1015.0 |
| 20260904091506 | 80 | 127 | 0.0 | 0.0 | 0.00 | 0.00 | 0.00 | 92 | 1014.8 |
| 20260904091332 | 81 | 127 | 0.0 | 0.0 | 0.00 | 0.00 | 0.00 | 92 | 1014.9 |
| 20260904090828 | 81 | 127 | 0.0 | 0.0 | 0.00 | 0.00 | 0.00 | 92 | 1015.0 |
| 20260904090325 | 81 | 127 | 0.0 | 0.0 | 0.00 | 0.00 | 0.00 | 92 | 1014.9 |
| 20260904090051 | 80 | 127 | 0.0 | 0.0 | 0.00 | 0.00 | 0.00 | 92 | 1014.8 |
| 20260904085824 | 80 | 127 | 0.0 | 0.0 | 0.00 | 0.00 | 0.00 | 92 | 1014.9 |
| 20260904085321 | 80 | 127 | 0.0 | 0.0 | 0.00 | 0.00 | 0.00 | 92 | 1014.8 |
| 20260904084818 | 80 | 127 | 0.0 | 0.0 | 0.00 | 0.00 | 0.00 | 92 | 1014.8 |
| 20260904084538 | 80 | 127 | 0.0 | 0.0 | 0.00 | 0.00 | 0.00 | 92 | 1014.7 |
| 20260904084317 | 80 | 127 | 0.0 | 0.0 | 0.00 | 0.00 | 0.00 | 92 | 1014.8 |
| 20260904083814 | 80 | 127 | 0.0 | 0.0 | 0.00 | 0.00 | 0.00 | 92 | 1014.8 |
| 20260904083333 | 80 | 127 | 0.0 | 0.0 | 0.00 | 0.00 | 0.00 | 92 | 1014.8 |
| 20260904083024 | 80 | 127 | 0.0 | 0.0 | 0.00 | 0.00 | 0.00 | 92 | 1014.7 |
| 20260904082830 | 80 | 127 | 0.0 | 0.0 | 0.00 | 0.00 | 0.00 | 92 | 1014.7 |
| 20260904082328 | 80 | 127 | 0.0 | 0.0 | 0.00 | 0.00 | 0.00 | 91 | 1014.7 |
| 20260904081847 | 80 | 127 | 0.0 | 0.0 | 0.00 | 0.00 | 0.00 | 91 | 1014.7 |
| 20260904081550 | 79 | 127 | 0.0 | 0.0 | 0.00 | 0.00 | 0.00 | 91 | 1014.5 |
| 20260904081323 | 80 | 127 | 0.0 | 0.0 | 0.00 | 0.00 | 0.00 | 91 | 1014.7 |
| 20260904080820 | 80 | 127 | 0.0 | 0.0 | 0.00 | 0.00 | 0.00 | 91 | 1014.7 |
| 20260904080319 | 80 | 127 | 0.0 | 0.0 | 0.00 | 0.00 | 0.00 | 91 | 1014.7 |
| 20260904080038 | 80 | 127 | 0.0 | 0.0 | 0.00 | 0.00 | 0.00 | 91 | 1014.6 |
| 20260904075817 | 80 | 127 | 0.0 | 0.0 | 0.00 | 0.00 | 0.00 | 91 | 1014.7 |
| 20260904075314 | 80 | 127 | 0.0 | 0.0 | 0.00 | 0.00 | 0.00 | 91 | 1014.6 |
| 20260904074832 | 80 | 127 | 0.0 | 0.0 | 0.00 | 0.00 | 0.00 | 91 | 1014.6 |
| 20260904074530 | 80 | 127 | 0.0 | 0.0 | 0.00 | 0.00 | 0.00 | 91 | 1014.5 |
| 20260904074329 | 81 | 127 | 0.0 | 0.0 | 0.00 | 0.00 | 0.00 | 91 | 1014.5 |
| 20260904073826 | 81 | 127 | 0.0 | 0.0 | 0.00 | 0.00 | 0.00 | 91 | 1014.6 |
| 20260904073322 | 80 | 127 | 0.0 | 0.0 | 0.00 | 0.00 | 0.00 | 90 | 1014.7 |
| 20260904073013 | 80 | 127 | 0.0 | 0.0 | 0.00 | 0.00 | 0.00 | 90 | 1014.7 |
| 20260904072819 | 81 | 127 | 0.0 | 0.0 | 0.00 | 0.00 | 0.00 | 90 | 1014.8 |
| 20260904072336 | 81 | 127 | 0.0 | 0.0 | 0.00 | 0.00 | 0.00 | 90 | 1014.8 |
| 20260904071855 | 81 | 127 | 0.0 | 0.0 | 0.00 | 0.00 | 0.00 | 90 | 1014.8 |
| 20260904071536 | 80 | 127 | 0.0 | 0.0 | 0.00 | 0.00 | 0.00 | 90 | 1014.7 |
| 20260904071350 | 81 | 127 | 0.0 | 0.0 | 0.00 | 0.00 | 0.00 | 90 | 1014.8 |
| 20260904070848 | 81 | 127 | 0.0 | 0.0 | 0.00 | 0.00 | 0.00 | 90 | 1014.9 |
| 20260904070324 | 81 | 127 | 0.0 | 0.0 | 0.00 | 0.00 | 0.00 | 90 | 1014.8 |
| 20260904070039 | 80 | 127 | 0.0 | 0.0 | 0.00 | 0.00 | 0.00 | 90 | 1014.7 |
| 20260904065820 | 81 | 127 | 0.0 | 0.0 | 0.00 | 0.00 | 0.00 | 90 | 1014.8 |
| 20260904065337 | 81 | 127 | 0.0 | 0.0 | 0.00 | 0.00 | 0.00 | 90 | 1014.8 |
| 20260904064833 | 81 | 127 | 0.0 | 0.0 | 0.00 | 0.00 | 0.00 | 90 | 1014.9 |
| 20260904064555 | 81 | 127 | 0.0 | 0.0 | 0.00 | 0.00 | 0.00 | 90 | 1014.8 |
| 20260904064329 | 81 | 127 | 0.0 | 0.0 | 0.00 | 0.00 | 0.00 | 90 | 1014.9 |
| 20260904063828 | 81 | 127 | 0.0 | 0.0 | 0.00 | 0.00 | 0.00 | 90 | 1014.9 |
| 20260904063325 | 81 | 127 | 0.0 | 0.0 | 0.00 | 0.00 | 0.00 | 90 | 1015.0 |
| 20260904063050 | 81 | 127 | 0.0 | 0.0 | 0.00 | 0.00 | 0.00 | 90 | 1014.9 |
| 20260904062822 | 81 | 127 | 0.0 | 0.0 | 0.00 | 0.00 | 0.00 | 90 | 1015.0 |
| 20260904062319 | 81 | 127 | 0.0 | 0.0 | 0.00 | 0.00 | 0.00 | 90 | 1015.1 |
| 20260904061816 | 81 | 127 | 0.0 | 0.0 | 0.00 | 0.00 | 0.00 | 90 | 1015.0 |
| 20260904061529 | 81 | 127 | 0.0 | 0.0 | 0.00 | 0.00 | 0.00 | 90 | 1015.0 |
| 20260904061330 | 81 | 127 | 0.0 | 0.0 | 0.00 | 0.00 | 0.00 | 90 | 1015.1 |
| 20260904060829 | 81 | 127 | 0.0 | 0.0 | 0.00 | 0.00 | 0.00 | 89 | 1015.2 |
| 20260904060325 | 82 | 127 | 0.0 | 0.0 | 0.00 | 0.00 | 0.00 | 89 | 1015.1 |
| 20260904060018 | 81 | 127 | 0.0 | 0.0 | 0.00 | 0.00 | 0.00 | 89 | 1015.0 |
| 20260904055823 | 82 | 127 | 0.0 | 0.0 | 0.00 | 0.00 | 0.00 | 89 | 1015.2 |
| 20260904055320 | 82 | 127 | 0.0 | 0.0 | 0.00 | 0.00 | 0.00 | 89 | 1015.3 |
| 20260904054817 | 82 | 127 | 0.0 | 0.0 | 0.00 | 0.00 | 0.00 | 89 | 1015.3 |
| 20260904054558 | 81 | 127 | 0.0 | 0.0 | 0.00 | 0.00 | 0.00 | 89 | 1015.1 |
| 20260904054316 | 82 | 127 | 0.0 | 0.0 | 0.00 | 0.00 | 0.00 | 89 | 1015.2 |
| 20260904053835 | 82 | 127 | 0.0 | 0.0 | 0.00 | 0.00 | 0.00 | 89 | 1015.4 |
| 20260904053350 | 82 | 122 | 0.0 | 0.0 | 0.00 | 0.00 | 0.00 | 89 | 1015.3 |
| 20260904053025 | 81 | 122 | 0.0 | 0.0 | 0.00 | 0.00 | 0.00 | 89 | 1015.2 |
| 20260904052824 | 82 | 122 | 0.0 | 0.0 | 0.00 | 0.00 | 0.00 | 90 | 1015.3 |
| 20260904052323 | 82 | 122 | 0.0 | 0.0 | 0.00 | 0.00 | 0.00 | 90 | 1015.4 |
| 20260904051819 | 82 | 115 | 0.0 | 0.0 | 0.00 | 0.00 | 0.00 | 91 | 1015.5 |
| 20260904051539 | 81 | 115 | 0.0 | 0.0 | 0.00 | 0.00 | 0.00 | 91 | 1015.4 |
| 20260904051337 | 82 | 115 | 0.0 | 0.0 | 0.00 | 0.00 | 0.00 | 90 | 1015.5 |
| 20260904050834 | 82 | 115 | 0.0 | 0.0 | 0.00 | 0.00 | 0.00 | 90 | 1015.5 |
| 20260904050332 | 82 | 115 | 0.0 | 0.0 | 0.00 | 0.00 | 0.00 | 91 | 1015.5 |
| 20260904050045 | 81 | 115 | 0.0 | 0.0 | 0.00 | 0.00 | 0.00 | 91 | 1015.4 |
| 20260904045824 | 82 | 115 | 0.0 | 0.0 | 0.00 | 0.07 | 0.00 | 91 | 1015.5 |
| 20260904045321 | 81 | 115 | 0.0 | 0.0 | 0.00 | 0.07 | 0.00 | 90 | 1015.5 |
| 20260904044819 | 81 | 115 | 0.0 | 0.0 | 0.00 | 0.07 | 0.00 | 90 | 1015.6 |
| 20260904044533 | 81 | 115 | 0.0 | 0.0 | 0.00 | 0.07 | 0.00 | 90 | 1015.4 |
| 20260904044316 | 81 | 115 | 0.0 | 0.0 | 0.00 | 0.07 | 0.00 | 90 | 1015.5 |
| 20260904043832 | 81 | 115 | 0.0 | 0.0 | 0.00 | 0.07 | 0.00 | 90 | 1015.6 |
| 20260904043329 | 81 | 115 | 0.0 | 0.0 | 0.00 | 0.07 | 0.00 | 90 | 1015.8 |
| 20260904043015 | 81 | 115 | 0.0 | 0.0 | 0.00 | 0.07 | 0.00 | 90 | 1015.7 |
| 20260904042846 | 81 | 115 | 0.0 | 0.0 | 0.00 | 0.07 | 0.00 | 90 | 1015.8 |
| 20260904042322 | 81 | 115 | 0.0 | 0.0 | 0.00 | 0.07 | 0.00 | 90 | 1015.9 |
| 20260904041821 | 82 | 115 | 0.0 | 0.0 | 0.00 | 0.07 | 0.00 | 90 | 1015.8 |
| 20260904041542 | 81 | 115 | 0.0 | 0.0 | 0.00 | 0.07 | 0.00 | 90 | 1015.7 |
| 20260904041318 | 82 | 115 | 0.0 | 0.0 | 0.00 | 0.07 | 0.00 | 90 | 1015.8 |
| 20260904040816 | 82 | 115 | 0.0 | 0.0 | 0.00 | 0.07 | 0.00 | 90 | 1015.9 |
| 20260904040314 | 82 | 115 | 0.0 | 0.0 | 0.00 | 0.07 | 0.00 | 90 | 1015.9 |
| 20260904040033 | 81 | 115 | 0.0 | 0.0 | 0.00 | 0.85 | 0.00 | 90 | 1015.7 |
| 20260904035830 | 81 | 115 | 0.0 | 0.0 | 0.00 | 0.85 | 0.07 | 90 | 1015.8 |
| 20260904035328 | 81 | 115 | 0.0 | 0.0 | 0.00 | 0.85 | 0.07 | 89 | 1015.8 |
| 20260904034826 | 82 | 115 | 0.0 | 0.0 | 0.00 | 0.85 | 0.07 | 89 | 1015.9 |
| 20260904034508 | 81 | 115 | 0.0 | 0.0 | 0.00 | 0.85 | 0.07 | 89 | 1015.6 |
| 20260904034323 | 82 | 115 | 0.0 | 0.0 | 0.00 | 0.85 | 0.07 | 89 | 1015.8 |
| 20260904033820 | 82 | 115 | 0.0 | 0.0 | 0.00 | 0.85 | 0.07 | 89 | 1015.9 |
| 20260904033338 | 82 | 115 | 0.0 | 0.0 | 0.00 | 0.85 | 0.07 | 89 | 1015.9 |
| 20260904033027 | 81 | 115 | 0.0 | 0.0 | 0.00 | 0.85 | 0.07 | 89 | 1015.9 |
| 20260904032834 | 82 | 115 | 0.0 | 0.0 | 0.00 | 0.85 | 0.07 | 89 | 1016.0 |
| 20260904032333 | 82 | 115 | 0.0 | 0.0 | 0.00 | 0.85 | 0.07 | 89 | 1016.0 |
| 20260904031829 | 82 | 115 | 0.0 | 0.0 | 0.00 | 0.85 | 0.07 | 89 | 1016.0 |
| 20260904031514 | 82 | 115 | 0.0 | 0.0 | 0.00 | 0.85 | 0.07 | 89 | 1015.7 |
| 20260904031327 | 82 | 115 | 0.0 | 0.0 | 0.00 | 0.85 | 0.07 | 89 | 1015.9 |
| 20260904030846 | 82 | 115 | 0.0 | 0.0 | 0.00 | 0.85 | 0.07 | 88 | 1016.0 |
| 20260904030324 | 82 | 115 | 0.0 | 0.0 | 0.00 | 0.85 | 0.07 | 88 | 1016.0 |
| 20260904030041 | 82 | 115 | 0.0 | 0.0 | 0.00 | 0.85 | 0.07 | 88 | 1015.9 |
| 20260904025824 | 82 | 115 | 0.0 | 0.0 | 0.00 | 0.85 | 0.07 | 88 | 1016.1 |
| 20260904025321 | 83 | 115 | 0.0 | 0.0 | 0.00 | 0.85 | 0.07 | 88 | 1016.0 |
| 20260904024820 | 83 | 115 | 0.0 | 0.0 | 0.00 | 0.85 | 0.07 | 87 | 1016.0 |
| 20260904024534 | 82 | 115 | 0.0 | 0.0 | 0.00 | 0.85 | 0.07 | 87 | 1015.9 |
| 20260904024318 | 83 | 115 | 0.0 | 0.0 | 0.00 | 0.85 | 0.07 | 87 | 1016.1 |
| 20260904023832 | 83 | 115 | 0.0 | 0.0 | 0.00 | 0.85 | 0.07 | 86 | 1016.1 |
| 20260904023348 | 83 | 115 | 0.0 | 0.0 | 0.00 | 0.85 | 0.07 | 86 | 1016.0 |
| 20260904023056 | 83 | 115 | 0.0 | 0.0 | 0.00 | 0.85 | 0.07 | 86 | 1015.9 |
| 20260904022825 | 84 | 115 | 0.0 | 0.0 | 0.00 | 0.85 | 0.07 | 85 | 1016.0 |
| 20260904022341 | 84 | 115 | 0.0 | 0.0 | 0.00 | 0.85 | 0.07 | 85 | 1016.0 |
| 20260904021838 | 84 | 115 | 0.0 | 0.0 | 0.00 | 0.85 | 0.07 | 84 | 1016.0 |
| 20260904021519 | 84 | 115 | 0.0 | 0.0 | 0.00 | 0.85 | 0.07 | 84 | 1016.0 |
| 20260904021356 | 84 | 115 | 0.0 | 0.0 | 0.00 | 0.85 | 0.07 | 84 | 1016.1 |
| 20260904020832 | 85 | 115 | 0.0 | 0.0 | 0.00 | 0.85 | 0.07 | 83 | 1016.0 |
| 20260904020328 | 85 | 115 | 0.0 | 0.0 | 0.00 | 0.85 | 0.07 | 83 | 1016.0 |
| 20260904020043 | 85 | 115 | 0.0 | 0.0 | 0.00 | 0.85 | 0.07 | 83 | 1015.8 |
| 20260904015826 | 86 | 115 | 0.0 | 0.0 | 0.00 | 0.85 | 0.07 | 83 | 1015.9 |
| 20260904015324 | 86 | 115 | 0.0 | 3.0 | 0.00 | 0.85 | 0.07 | 83 | 1015.8 |
| 20260904014820 | 86 | 119 | 0.0 | 3.0 | 0.00 | 0.85 | 0.07 | 83 | 1015.8 |
| 20260904014524 | 85 | 148 | 0.0 | 2.0 | 0.00 | 0.85 | 0.07 | 83 | 1015.5 |
| 20260904014338 | 86 | 146 | 0.0 | 3.0 | 0.00 | 0.85 | 0.07 | 82 | 1015.7 |
| 20260904013817 | 86 | 148 | 1.0 | 3.0 | 0.00 | 0.85 | 0.07 | 82 | 1015.7 |
| 20260904013334 | 86 | 113 | 0.0 | 3.0 | 0.00 | 0.85 | 0.07 | 83 | 1015.6 |
| 20260904013050 | 86 | 113 | 0.0 | 3.0 | 0.00 | 0.85 | 0.07 | 82 | 1015.5 |
| 20260904012832 | 86 | 113 | 1.0 | 3.0 | 0.00 | 0.85 | 0.07 | 82 | 1015.6 |
| 20260904012328 | 86 | 129 | 2.0 | 3.0 | 0.00 | 0.85 | 0.07 | 82 | 1015.6 |
| 20260904011826 | 86 | 125 | 1.0 | 4.0 | 0.00 | 0.85 | 0.07 | 82 | 1015.6 |
| 20260904011545 | 86 | 115 | 1.0 | 4.0 | 0.00 | 0.85 | 0.07 | 82 | 1015.5 |
| 20260904011323 | 86 | 129 | 0.0 | 2.0 | 0.00 | 0.85 | 0.07 | 82 | 1015.5 |
| 20260904010819 | 86 | 122 | 0.0 | 2.0 | 0.00 | 0.85 | 0.07 | 82 | 1015.4 |
| 20260904010317 | 86 | 113 | 0.0 | 4.0 | 0.00 | 0.85 | 0.07 | 82 | 1015.4 |
| 20260904010038 | 86 | 138 | 2.0 | 6.0 | 0.00 | 0.85 | 0.07 | 82 | 1015.2 |
| 20260904005816 | 86 | 122 | 3.0 | 6.0 | 0.00 | 0.85 | 0.07 | 82 | 1015.3 |
| 20260904005333 | 86 | 125 | 3.0 | 6.0 | 0.00 | 0.85 | 0.07 | 82 | 1015.3 |
| 20260904004849 | 86 | 124 | 3.0 | 6.0 | 0.00 | 0.85 | 0.07 | 82 | 1015.3 |
| 20260904004550 | 86 | 135 | 3.0 | 5.0 | 0.00 | 0.85 | 0.07 | 82 | 1015.2 |
| 20260904004325 | 86 | 108 | 2.0 | 5.0 | 0.00 | 0.85 | 0.07 | 82 | 1015.2 |
| 20260904003823 | 86 | 125 | 3.0 | 5.0 | 0.00 | 0.85 | 0.07 | 82 | 1015.1 |
| 20260904003322 | 86 | 121 | 3.0 | 4.0 | 0.00 | 0.85 | 0.07 | 82 | 1015.0 |
| 20260904003034 | 86 | 136 | 1.0 | 4.0 | 0.00 | 0.85 | 0.07 | 82 | 1014.9 |
| 20260904002839 | 87 | 137 | 2.0 | 6.0 | 0.00 | 0.85 | 0.07 | 82 | 1015.0 |
| 20260904002334 | 87 | 131 | 2.0 | 6.0 | 0.00 | 0.85 | 0.07 | 82 | 1015.0 |
| 20260904001851 | 87 | 128 | 3.0 | 6.0 | 0.00 | 0.85 | 0.07 | 82 | 1014.9 |
| 20260904001541 | 86 | 121 | 3.0 | 5.0 | 0.00 | 0.85 | 0.07 | 82 | 1014.9 |
| 20260904001346 | 87 | 158 | 3.0 | 6.0 | 0.00 | 0.85 | 0.07 | 82 | 1015.0 |
| 20260904000824 | 87 | 125 | 2.0 | 6.0 | 0.00 | 0.85 | 0.07 | 82 | 1015.0 |
| 20260904000340 | 87 | 148 | 3.0 | 5.0 | 0.00 | 0.85 | 0.07 | 82 | 1014.9 |
| 20260904000052 | 86 | 125 | 2.0 | 5.0 | 0.00 | 0.85 | 0.07 | 82 | 1014.8 |
| 20260903235816 | 87 | 128 | 2.0 | 5.0 | 0.00 | 0.85 | 0.07 | 82 | 1015.0 |
| 20260903235334 | 87 | 111 | 1.0 | 4.0 | 0.00 | 0.85 | 0.07 | 82 | 1014.9 |
| 20260903234830 | 87 | 143 | 1.0 | 5.0 | 0.00 | 0.85 | 0.07 | 82 | 1014.9 |
| 20260903234508 | 87 | 137 | 2.0 | 5.0 | 0.00 | 0.85 | 0.07 | 82 | 1014.8 |
| 20260903234328 | 87 | 139 | 3.0 | 5.0 | 0.00 | 0.85 | 0.07 | 82 | 1014.8 |
| 20260903233847 | 87 | 127 | 2.0 | 5.0 | 0.00 | 0.85 | 0.07 | 82 | 1014.9 |
| 20260903233322 | 87 | 116 | 3.0 | 5.0 | 0.00 | 0.85 | 0.07 | 82 | 1014.9 |
| 20260903233027 | 87 | 132 | 0.0 | 6.0 | 0.00 | 0.85 | 0.07 | 82 | 1014.7 |
| 20260903232820 | 87 | 94 | 1.0 | 6.0 | 0.00 | 0.85 | 0.07 | 82 | 1014.7 |
| 20260903231826 | 87 | 128 | 3.0 | 6.0 | 0.00 | 0.85 | 0.07 | 82 | 1014.5 |
| 20260903231528 | 87 | 155 | 2.0 | 6.0 | 0.00 | 0.85 | 0.07 | 82 | 1014.4 |
| 20260903231324 | 87 | 110 | 4.0 | 6.0 | 0.00 | 0.85 | 0.07 | 82 | 1014.6 |
| 20260903230821 | 87 | 150 | 2.0 | 6.0 | 0.00 | 0.85 | 0.07 | 82 | 1014.5 |
| 20260903230338 | 86 | 125 | 2.0 | 4.0 | 0.00 | 0.85 | 0.07 | 82 | 1014.5 |
| 20260903230021 | 86 | 342 | 0.0 | 0.0 | 0.00 | 0.85 | 0.07 | 83 | 1014.6 |
| 20260903225855 | 86 | 342 | 0.0 | 0.0 | 0.00 | 0.85 | 0.07 | 83 | 1014.8 |
| 20260903225331 | 86 | 342 | 0.0 | 0.0 | 0.00 | 0.85 | 0.07 | 82 | 1014.8 |
| 20260903224848 | 87 | 342 | 0.0 | 0.0 | 0.00 | 0.85 | 0.07 | 82 | 1014.8 |
| 20260903224515 | 86 | 342 | 0.0 | 0.0 | 0.00 | 0.85 | 0.07 | 83 | 1014.8 |
| 20260903224325 | 87 | 342 | 0.0 | 0.0 | 0.00 | 0.85 | 0.07 | 83 | 1015.0 |
| 20260903223843 | 87 | 342 | 0.0 | 0.0 | 0.00 | 0.85 | 0.07 | 82 | 1014.9 |
| 20260903223320 | 87 | 342 | 0.0 | 0.0 | 0.00 | 0.85 | 0.07 | 83 | 1014.8 |
| 20260903223040 | 86 | 342 | 0.0 | 0.0 | 0.00 | 0.85 | 0.07 | 83 | 1014.7 |
| 20260903222820 | 86 | 342 | 0.0 | 1.0 | 0.00 | 0.85 | 0.07 | 82 | 1014.7 |
| 20260903222338 | 86 | 342 | 0.0 | 2.0 | 0.00 | 0.85 | 0.07 | 82 | 1014.7 |
| 20260903221816 | 86 | 342 | 1.0 | 2.0 | 0.00 | 0.85 | 0.07 | 82 | 1014.6 |
| 20260903221558 | 86 | 356 | 0.0 | 2.0 | 0.00 | 0.85 | 0.07 | 82 | 1014.5 |
| 20260903221332 | 86 | 2 | 0.0 | 1.0 | 0.00 | 0.85 | 0.07 | 82 | 1014.6 |
| 20260903220830 | 86 | 339 | 0.0 | 0.0 | 0.00 | 0.85 | 0.07 | 82 | 1014.5 |
| 20260903220326 | 86 | 339 | 0.0 | 0.0 | 0.00 | 0.85 | 0.07 | 83 | 1014.4 |
| 20260903220053 | 86 | 340 | 0.0 | 0.0 | 0.00 | 0.85 | 0.07 | 82 | 1014.3 |
| 20260903215823 | 86 | 339 | 0.0 | 0.0 | 0.00 | 0.85 | 0.07 | 83 | 1014.3 |
| 20260903215320 | 86 | 339 | 0.0 | 0.0 | 0.00 | 0.85 | 0.07 | 82 | 1014.2 |
| 20260903214541 | 85 | 339 | 0.0 | 2.0 | 0.00 | 0.85 | 0.07 | 82 | 1014.1 |
| 20260903214326 | 86 | 339 | 0.0 | 4.0 | 0.00 | 0.85 | 0.07 | 82 | 1014.0 |
| 20260903213823 | 85 | 339 | 1.0 | 4.0 | 0.00 | 0.85 | 0.07 | 82 | 1014.0 |
| 20260903213319 | 86 | 54 | 2.0 | 3.0 | 0.00 | 0.85 | 0.07 | 82 | 1014.0 |
| 20260903213016 | 86 | 346 | 1.0 | 4.0 | 0.00 | 0.85 | 0.07 | 82 | 1013.9 |
| 20260903212837 | 87 | 25 | 1.0 | 5.0 | 0.00 | 0.85 | 0.07 | 82 | 1014.0 |
| 20260903211815 | 88 | 357 | 4.0 | 8.0 | 0.00 | 0.85 | 0.07 | 80 | 1013.8 |
| 20260903211533 | 89 | 346 | 3.0 | 8.0 | 0.00 | 0.85 | 0.07 | 79 | 1013.6 |
| 20260903211331 | 90 | 356 | 4.0 | 8.0 | 0.00 | 0.85 | 0.07 | 78 | 1013.8 |
| 20260903210827 | 90 | 128 | 0.0 | 1.0 | 0.00 | 0.85 | 0.07 | 77 | 1013.7 |
| 20260903210344 | 91 | 129 | 0.0 | 2.0 | 0.00 | 0.85 | 0.07 | 77 | 1013.8 |
| 20260903210108 | 90 | 129 | 0.0 | 5.0 | 0.00 | 0.85 | 0.07 | 76 | 1013.6 |
| 20260903205819 | 90 | 129 | 1.0 | 5.0 | 0.00 | 0.85 | 0.07 | 76 | 1013.9 |
| 20260903205315 | 91 | 124 | 2.0 | 7.0 | 0.00 | 0.85 | 0.07 | 74 | 1014.0 |
| 20260903204833 | 91 | 159 | 2.0 | 8.0 | 0.00 | 0.85 | 0.07 | 76 | 1014.1 |
| 20260903204604 | 90 | 148 | 0.0 | 8.0 | 0.00 | 0.85 | 0.07 | 75 | 1014.1 |
| 20260903204329 | 91 | 124 | 4.0 | 8.0 | 0.00 | 0.85 | 0.07 | 75 | 1014.2 |
| 20260903203825 | 91 | 131 | 3.0 | 6.0 | 0.00 | 0.85 | 0.07 | 76 | 1014.1 |
| 20260903203342 | 91 | 146 | 2.0 | 8.0 | 0.00 | 0.85 | 0.07 | 76 | 1013.8 |
| 20260903203009 | 91 | 162 | 1.0 | 8.0 | 0.00 | 0.85 | 0.07 | 76 | 1013.5 |
| 20260903202818 | 91 | 139 | 2.0 | 8.0 | 0.00 | 0.85 | 0.07 | 77 | 1013.6 |
| 20260903202316 | 91 | 127 | 3.0 | 8.0 | 0.00 | 0.85 | 0.07 | 77 | 1013.5 |
| 20260903201814 | 92 | 143 | 4.0 | 8.0 | 0.00 | 0.85 | 0.07 | 76 | 1013.5 |
| 20260903201551 | 91 | 174 | 3.0 | 7.0 | 0.00 | 0.85 | 0.07 | 77 | 1013.4 |
| 20260903201331 | 92 | 176 | 4.0 | 7.0 | 0.00 | 0.85 | 0.07 | 76 | 1013.7 |
| 20260903200825 | 92 | 81 | 2.0 | 9.0 | 0.00 | 0.85 | 0.07 | 78 | 1013.8 |
| 20260903200342 | 91 | 147 | 4.0 | 9.0 | 0.00 | 0.85 | 0.07 | 77 | 1013.9 |
| 20260903200011 | 91 | 172 | 3.0 | 10.0 | 0.00 | 0.85 | 0.07 | 78 | 1013.8 |
| 20260903195818 | 91 | 199 | 4.0 | 10.0 | 0.00 | 0.85 | 0.07 | 78 | 1013.9 |
| 20260903195335 | 91 | 174 | 4.0 | 10.0 | 0.00 | 0.85 | 0.07 | 78 | 1013.8 |
| 20260903194853 | 91 | 127 | 4.0 | 10.0 | 0.00 | 0.85 | 0.07 | 78 | 1013.6 |
| 20260903194529 | 91 | 144 | 3.0 | 8.0 | 0.00 | 0.85 | 0.07 | 78 | 1013.5 |
| 20260903194329 | 91 | 227 | 3.0 | 9.0 | 0.00 | 0.85 | 0.07 | 79 | 1013.8 |
| 20260903193826 | 91 | 113 | 3.0 | 9.0 | 0.00 | 0.85 | 0.07 | 79 | 1013.9 |
| 20260903193322 | 91 | 91 | 2.0 | 5.0 | 0.00 | 0.85 | 0.07 | 80 | 1014.1 |
| 20260903193017 | 90 | 148 | 1.0 | 9.0 | 0.00 | 0.85 | 0.07 | 80 | 1013.9 |
| 20260903192819 | 90 | 129 | 1.0 | 9.0 | 0.00 | 0.85 | 0.07 | 80 | 1014.0 |
| 20260903192316 | 90 | 156 | 4.0 | 10.0 | 0.00 | 0.85 | 0.07 | 79 | 1014.0 |
| 20260903191815 | 90 | 130 | 7.0 | 10.0 | 0.00 | 0.85 | 0.07 | 78 | 1014.1 |
| 20260903191509 | 90 | 171 | 3.0 | 10.0 | 0.00 | 0.85 | 0.07 | 79 | 1013.9 |
| 20260903191331 | 91 | 151 | 4.0 | 10.0 | 0.00 | 0.85 | 0.07 | 79 | 1014.0 |
| 20260903190828 | 90 | 160 | 6.0 | 10.0 | 0.00 | 0.85 | 0.07 | 79 | 1014.0 |
| 20260903190321 | 90 | 125 | 3.0 | 9.0 | 0.00 | 0.85 | 0.07 | 79 | 1013.9 |
| 20260903190043 | 90 | 122 | 4.0 | 9.0 | 0.00 | 0.85 | 0.07 | 79 | 1014.0 |
| 20260903185838 | 91 | 98 | 5.0 | 9.0 | 0.00 | 0.85 | 0.07 | 78 | 1014.1 |
| 20260903185355 | 92 | 108 | 5.0 | 9.0 | 0.00 | 0.85 | 0.07 | 79 | 1014.2 |
| 20260903184826 | 91 | 122 | 4.0 | 11.0 | 0.00 | 0.85 | 0.07 | 79 | 1014.2 |
| 20260903184551 | 91 | 153 | 5.0 | 11.0 | 0.00 | 0.85 | 0.07 | 78 | 1014.1 |
| 20260903184322 | 91 | 119 | 6.0 | 10.0 | 0.00 | 0.85 | 0.07 | 79 | 1014.1 |
| 20260903183819 | 91 | 128 | 4.0 | 11.0 | 0.00 | 0.85 | 0.07 | 79 | 1014.1 |
| 20260903183318 | 90 | 139 | 5.0 | 11.0 | 0.00 | 0.85 | 0.07 | 80 | 1014.1 |
| 20260903183038 | 90 | 61 | 5.0 | 11.0 | 0.00 | 0.85 | 0.07 | 79 | 1014.0 |
| 20260903182350 | 90 | 136 | 4.0 | 9.0 | 0.00 | 0.85 | 0.07 | 79 | 1014.0 |
| 20260903181825 | 91 | 133 | 6.0 | 9.0 | 0.00 | 0.85 | 0.07 | 77 | 1014.2 |
| 20260903181548 | 90 | 142 | 2.0 | 7.0 | 0.00 | 0.85 | 0.07 | 78 | 1014.2 |
| 20260903181323 | 91 | 134 | 2.0 | 7.0 | 0.00 | 0.85 | 0.07 | 79 | 1014.3 |
| 20260903180820 | 91 | 141 | 2.0 | 4.0 | 0.00 | 0.85 | 0.07 | 79 | 1014.2 |
| 20260903180317 | 91 | 81 | 2.0 | 8.0 | 0.00 | 0.85 | 0.07 | 78 | 1014.2 |
| 20260903180036 | 90 | 144 | 3.0 | 8.0 | 0.00 | 0.85 | 0.07 | 78 | 1014.1 |
| 20260903175835 | 91 | 147 | 5.0 | 8.0 | 0.00 | 0.85 | 0.07 | 78 | 1014.3 |
| 20260903175353 | 91 | 127 | 1.0 | 5.0 | 0.00 | 0.85 | 0.07 | 79 | 1014.5 |
| 20260903174828 | 91 | 147 | 2.0 | 6.0 | 0.00 | 0.85 | 0.07 | 79 | 1014.6 |
| 20260903174555 | 90 | 125 | 1.0 | 6.0 | 0.00 | 0.85 | 0.07 | 79 | 1014.6 |
| 20260903174324 | 91 | 136 | 3.0 | 6.0 | 0.00 | 0.85 | 0.07 | 79 | 1014.7 |
| 20260903173822 | 91 | 138 | 3.0 | 6.0 | 0.00 | 0.85 | 0.07 | 79 | 1014.8 |
| 20260903173340 | 91 | 134 | 2.0 | 8.0 | 0.00 | 0.85 | 0.07 | 80 | 1015.0 |
| 20260903173017 | 90 | 149 | 3.0 | 8.0 | 0.00 | 0.85 | 0.07 | 80 | 1014.8 |
| 20260903172836 | 91 | 120 | 4.0 | 8.0 | 0.00 | 0.85 | 0.07 | 80 | 1014.9 |
| 20260903172353 | 91 | 96 | 4.0 | 6.0 | 0.00 | 0.85 | 0.07 | 79 | 1015.1 |
| 20260903171828 | 91 | 140 | 2.0 | 7.0 | 0.00 | 0.85 | 0.07 | 80 | 1015.1 |
| 20260903171514 | 90 | 138 | 4.0 | 8.0 | 0.00 | 0.85 | 0.07 | 80 | 1015.1 |
| 20260903171345 | 90 | 130 | 4.0 | 8.0 | 0.00 | 0.85 | 0.07 | 81 | 1015.3 |
| 20260903170822 | 90 | 126 | 4.0 | 10.0 | 0.00 | 0.85 | 0.07 | 81 | 1015.5 |
| 20260903170318 | 90 | 133 | 4.0 | 10.0 | 0.00 | 0.85 | 0.07 | 81 | 1015.4 |
| 20260903170035 | 89 | 101 | 5.0 | 10.0 | 0.00 | 0.85 | 0.07 | 81 | 1015.4 |
| 20260903165815 | 90 | 142 | 6.0 | 9.0 | 0.00 | 0.85 | 0.07 | 81 | 1015.6 |
| 20260903165327 | 90 | 120 | 6.0 | 9.0 | 0.00 | 0.85 | 0.07 | 79 | 1015.5 |
| 20260903164825 | 90 | 132 | 3.0 | 8.0 | 0.00 | 0.85 | 0.07 | 81 | 1015.5 |
| 20260903164519 | 90 | 78 | 3.0 | 10.0 | 0.00 | 0.85 | 0.07 | 81 | 1015.4 |
| 20260903164343 | 90 | 132 | 4.0 | 10.0 | 0.00 | 0.85 | 0.07 | 81 | 1015.6 |
| 20260903163820 | 90 | 131 | 7.0 | 10.0 | 0.00 | 0.85 | 0.07 | 80 | 1015.7 |
| 20260903163337 | 91 | 117 | 7.0 | 10.0 | 0.00 | 0.85 | 0.07 | 79 | 1015.8 |
| 20260903163037 | 92 | 124 | 3.0 | 8.0 | 0.00 | 0.85 | 0.07 | 78 | 1015.8 |
| 20260903162854 | 92 | 117 | 2.0 | 6.0 | 0.00 | 0.85 | 0.07 | 76 | 1016.0 |
| 20260903162330 | 93 | 150 | 1.0 | 3.0 | 0.00 | 0.85 | 0.07 | 77 | 1016.0 |
| 20260903161826 | 92 | 215 | 0.0 | 3.0 | 0.00 | 0.85 | 0.07 | 78 | 1016.0 |
| 20260903161600 | 91 | 181 | 0.0 | 3.0 | 0.00 | 0.85 | 0.07 | 77 | 1015.9 |
| 20260903161501 | 91 | 155 | 0.0 | 1.0 | 0.00 | 0.85 | 0.07 | 78 | 1016.0 |
| 20260903161324 | 92 | 307 | 0.0 | 1.0 | 0.00 | 0.85 | 0.07 | 78 | 1016.1 |
| 20260903160842 | 92 | 308 | 0.0 | 4.0 | 0.00 | 0.85 | 0.07 | 78 | 1016.2 |
| 20260903160317 | 92 | 133 | 1.0 | 4.0 | 0.00 | 0.85 | 0.07 | 78 | 1016.2 |
| 20260903160050 | 91 | 102 | 1.0 | 5.0 | 0.00 | 0.85 | 0.07 | 79 | 1016.0 |
| 20260903155834 | 91 | 150 | 1.0 | 5.0 | 0.00 | 0.85 | 0.07 | 79 | 1016.1 |
| 20260903155351 | 91 | 107 | 2.0 | 5.0 | 0.00 | 0.85 | 0.07 | 79 | 1016.1 |
| 20260903154829 | 91 | 200 | 1.0 | 3.0 | 0.00 | 0.85 | 0.07 | 80 | 1016.2 |
| 20260903154547 | 91 | 167 | 0.0 | 3.0 | 0.00 | 0.85 | 0.07 | 80 | 1016.1 |
| 20260903154324 | 91 | 120 | 1.0 | 3.0 | 0.00 | 0.85 | 0.07 | 79 | 1016.2 |
| 20260903153823 | 90 | 138 | 1.0 | 3.0 | 0.00 | 0.85 | 0.07 | 79 | 1016.1 |
| 20260903153320 | 90 | 108 | 1.0 | 4.0 | 0.00 | 0.85 | 0.07 | 79 | 1016.2 |
| 20260903153027 | 90 | 164 | 0.0 | 4.0 | 0.00 | 0.85 | 0.07 | 80 | 1016.2 |
| 20260903152817 | 90 | 219 | 1.0 | 4.0 | 0.00 | 0.85 | 0.07 | 80 | 1016.3 |
| 20260903152317 | 90 | 131 | 0.0 | 5.0 | 0.00 | 0.85 | 0.07 | 80 | 1016.2 |
| 20260903151833 | 89 | 151 | 1.0 | 2.0 | 0.00 | 0.85 | 0.07 | 82 | 1016.2 |
| 20260903151513 | 89 | 282 | 0.0 | 0.0 | 0.00 | 0.85 | 0.07 | 82 | 1016.0 |
| 20260903151330 | 89 | 259 | 0.0 | 0.0 | 0.00 | 0.85 | 0.07 | 82 | 1016.0 |
| 20260903150826 | 89 | 133 | 0.0 | 5.0 | 0.00 | 0.85 | 0.07 | 82 | 1016.0 |
| 20260903150325 | 89 | 132 | 2.0 | 5.0 | 0.00 | 0.85 | 0.07 | 82 | 1016.1 |
| 20260903150035 | 89 | 139 | 0.0 | 5.0 | 0.00 | 0.85 | 0.07 | 82 | 1015.9 |
| 20260903145842 | 89 | 139 | 1.0 | 6.0 | 0.00 | 0.85 | 0.07 | 82 | 1016.0 |